CW2493 Weather Reports


Display with metric or nautical units.
time (UTC)temp
F
wind
direction
speed
MPH
gust
MPH
rain 1hr
in
rain 24hr
in
rain mn
in
humidity
%
barometer
mb
20260506233050 52 191 1.0 5.0 0.05 0.43 0.43 81 1005.6
20260506231533 53 133 0.0 5.0 0.06 0.42 0.42 81 1005.2
20260506230021 54 103 2.0 4.0 0.05 0.42 0.41 80 1004.9
20260506224515 57 110 0.0 8.0 0.04 0.41 0.40 80 1004.3
20260506223003 58 232 0.0 4.0 0.02 0.39 0.38 82 1003.9
20260506221604 58 168 0.0 3.0 0.01 0.37 0.36 82 1003.6
20260506220004 58 141 0.0 1.0 0.02 0.37 0.36 82 1003.8
20260506214557 58 201 0.0 3.0 0.02 0.37 0.36 82 1003.6
20260506213055 58 199 0.0 4.0 0.02 0.37 0.36 82 1003.7
20260506211541 58 220 0.0 3.0 0.01 0.36 0.35 82 1003.6
20260506210043 58 171 0.0 1.0 0.00 0.35 0.34 82 1003.8
20260506204509 58 212 0.0 4.0 0.00 0.35 0.34 82 1003.9
20260506203112 58 217 0.0 2.0 0.00 0.35 0.34 82 1004.0
20260506201541 58 231 0.0 6.0 0.00 0.35 0.34 82 1004.1
20260506200054 58 170 0.0 4.0 0.01 0.35 0.34 82 1004.2
20260506194533 58 262 0.0 5.0 0.02 0.35 0.34 82 1004.4
20260506193025 58 200 0.0 5.0 0.04 0.35 0.34 82 1004.4
20260506191510 58 148 0.0 7.0 0.05 0.35 0.34 82 1004.5
20260506190056 59 199 0.0 2.0 0.06 0.34 0.33 82 1004.6
20260506184550 58 238 0.0 0.0 0.07 0.33 0.32 81 1004.7
20260506183038 59 243 0.0 0.0 0.09 0.32 0.31 81 1004.8
20260506181540 58 231 0.0 0.0 0.10 0.30 0.28 81 1004.9
20260506180011 58 180 0.0 0.0 0.12 0.28 0.27 81 1005.1
20260506174557 58 242 0.0 1.0 0.14 0.26 0.25 81 1005.4
20260506173046 59 205 0.0 1.0 0.14 0.23 0.22 80 1005.4
20260506171537 58 255 0.0 0.0 0.13 0.20 0.19 80 1005.6
20260506170027 59 245 0.0 0.0 0.10 0.16 0.15 80 1006.0
20260506164535 59 281 0.0 0.0 0.06 0.11 0.10 80 1006.2
20260506163004 59 234 0.0 0.0 0.04 0.08 0.08 79 1006.2
20260506161553 59 250 0.0 0.0 0.04 0.07 0.06 79 1006.4
20260506160033 59 250 0.0 0.0 0.03 0.06 0.05 79 1006.3
20260506154513 59 235 0.0 0.0 0.04 0.05 0.04 79 1006.2
20260506153005 59 255 0.0 0.0 0.03 0.04 0.03 78 1006.4
20260506151547 60 238 0.0 0.0 0.02 0.03 0.02 77 1006.7
20260506150042 60 204 0.0 3.0 0.01 0.02 0.01 75 1006.9
20260506144531 61 164 0.0 3.0 0.00 0.01 0.00 72 1007.0
20260506143024 62 250 0.0 5.0 0.00 0.01 0.00 71 1007.0
20260506141522 62 252 0.0 4.0 0.00 0.01 0.00 71 1007.0
20260506140059 62 186 1.0 9.0 0.00 0.01 0.00 70 1006.8
20260506134556 63 221 3.0 11.0 0.00 0.01 0.00 70 1006.6
20260506133101 62 148 0.0 6.0 0.00 0.01 0.00 72 1006.5
20260506131530 61 184 0.0 6.0 0.00 0.01 0.00 74 1006.6
20260506130014 60 198 0.0 6.0 0.00 0.01 0.00 75 1006.8
20260506124600 59 222 0.0 9.0 0.00 0.01 0.00 77 1007.1
20260506123048 58 214 1.0 6.0 0.00 0.01 0.00 79 1007.3
20260506121600 57 229 0.0 1.0 0.00 0.01 0.00 82 1007.5
20260506120100 55 209 0.0 0.0 0.00 0.01 0.00 83 1007.3
20260506114544 52 90 0.0 0.0 0.00 0.01 0.00 81 1007.3
20260506113033 51 10 0.0 0.0 0.00 0.01 0.00 81 1007.0
20260506111518 51 301 0.0 0.0 0.00 0.01 0.00 81 1007.3
20260506110009 50 301 0.0 0.0 0.00 0.01 0.00 81 1007.5
20260506104613 50 299 0.0 0.0 0.00 0.01 0.00 81 1007.3
20260506103050 49 13 0.0 0.0 0.00 0.01 0.00 80 1007.0
20260506101542 49 13 0.0 0.0 0.00 0.01 0.00 79 1007.1
20260506100024 49 12 0.0 0.0 0.00 0.01 0.00 79 1007.0
20260506094517 49 12 0.0 0.0 0.00 0.01 0.00 79 1006.9
20260506093012 49 13 0.0 0.0 0.00 0.01 0.00 79 1007.0
20260506091600 50 23 0.0 0.0 0.00 0.01 0.00 79 1006.9
20260506090044 50 346 0.0 0.0 0.00 0.01 0.00 79 1007.1
20260506084609 51 344 0.0 0.0 0.00 0.01 0.00 79 1007.0
20260506083038 51 345 0.0 0.0 0.00 0.01 0.00 79 1007.0
20260506081527 51 336 0.0 0.0 0.00 0.01 0.00 79 1007.3
20260506073046 51 107 0.0 0.0 0.00 0.01 0.00 74 1007.7
20260506071535 52 127 0.0 0.0 0.00 0.01 0.00 74 1007.9
20260506061600 53 136 0.0 0.0 0.00 0.01 0.00 72 1007.7
20260506061503 54 136 0.0 0.0 0.00 0.01 0.00 72 1007.6
20260506044539 57 310 0.0 0.0 0.00 0.01 0.00 71 1008.1
20260506043047 57 1 0.0 0.0 0.00 0.01 0.00 70 1007.9
20260506041530 58 313 0.0 0.0 0.00 0.01 0.00 70 1007.9
20260506040032 58 313 0.0 0.0 0.00 0.01 0.00 70 1007.9
20260506034506 58 337 0.0 0.0 0.00 0.01 0.01 70 1007.8
20260506033053 58 344 0.0 0.0 0.00 0.01 0.01 70 1007.7
20260506031554 58 309 0.0 0.0 0.00 0.01 0.01 71 1007.7
20260506030033 58 344 0.0 0.0 0.00 0.01 0.01 70 1007.8
20260506024522 58 324 0.0 0.0 0.00 0.01 0.01 70 1007.8
20260506023020 59 324 0.0 0.0 0.00 0.01 0.01 70 1007.9
20260506021506 59 335 0.0 0.0 0.00 0.01 0.01 70 1008.0
20260506020016 59 286 0.0 0.0 0.00 0.01 0.01 69 1008.0
20260506014501 59 279 0.0 0.0 0.00 0.01 0.01 70 1007.8
20260506013106 60 252 0.0 0.0 0.00 0.01 0.01 69 1008.2
20260506011553 60 253 0.0 0.0 0.00 0.01 0.01 69 1007.5
20260506010035 60 253 0.0 0.0 0.00 0.01 0.01 68 1007.5
20260506004517 61 238 0.0 0.0 0.00 0.01 0.01 67 1007.3
20260506003003 61 238 0.0 0.0 0.00 0.01 0.01 66 1007.0
20260506001558 62 238 0.0 0.0 0.00 0.01 0.01 64 1006.7
20260506000054 62 238 0.0 0.0 0.00 0.01 0.01 63 1006.5
20260505234544 62 238 0.0 0.0 0.01 0.01 0.01 62 1006.8